www.pogodaiklimat.ru

Погода и климат >> Архив погоды >> Россия >> Ханты-Мансийский АО >> Корлики


ПОГОДА в Корликах

  • Прогноз погоды в Корликах
  • Монитор погоды в Корликах

АРХИВ ПОГОДЫ в Корликах

Время (UTC), дата Ветер
(напр.,м/с)
 
Видим.   Явления Облачность Т
(С)
Тd
(С)
f
(%)
Тe
(С)
Тes
(С)
Комфортность P
(гПа)
Po
(гПа)
Тmin
(С)
Tmax
(С)
R
(мм)
R24
(мм)
S
(см)
12 15.01 ЮЗ 2 н/о н/о -10.7 -12.5 87 -15 -15 1005.8 996.9
15 15.01 ЮЗ 3 4000 м слаб. снег 10/10 600 м
[Sc]
-9.5 -11.4 86 -15 -15 1008.2 998.4 -9.5 0.8
18 15.01 З 3 4000 м слаб. снег 10/0
[As op]
-9.9 -11.5 88 -16 -16 1010.1 1000.3
21 15.01 ЮЗ 2 10 км {снег} ясно -14.4 -16.1 87 -19 -19 1012.4 1002.4
00 16.01 ЮЗ 1 10 км {снег} ясно -20.4 -22.8 81 -23 -23 1014.0 1003.8
03 16.01 Ю 1 10 км 9/0
[Cs]
-16.5 -18.5 84 -19 -19 1014.3 1004.3 -22.5 0.2 47
06 16.01 Ю 1 н/о н/о -16.1 -18.1 85 -19 -19 1014.0 1004.8
09 16.01 Ю 2 10 км 10/0
[As trans]
-13.8 -15.7 86 -19 -19 1014.5 1004.5
12 16.01 Ю 2 н/о н/о -13.6 -15.5 86 -18 -18 1014.0 1004.9
15 16.01 Ю 1 10 км 10/0
[As trans]
-14.4 -16.4 85 -17 -17 1015.2 1005.1 -13.6
18 16.01 ЮЗ 2 10 км 10/0
[As op]
-14.8 -16.9 84 -20 -20 1016.3 1006.2
21 16.01 ЮЗ 2 4000 м слаб. снег 10/0
[As op]
-15.4 -17.5 84 -20 -20 1017.3 1007.2
00 17.01 ЮЗ 2 10 км {снег} 10/0
[As trans]
-15.1 -17.1 85 -20 -20 1018.1 1008.9
03 17.01 ЮЗ 2 10 км 10/3 600 м
[Sc Ac As Cs]
-16.3 -18.3 84 -22 -22 1020.0 1010.8 -16.3 0.2 47
06 17.01 ЮЗ 2 н/о н/о -15.7 -17.9 83 -21 -21 1022.2 1013.0 -16.9
09 17.01 ЮЗ 1 10 км 9/0
[Cs]
-15.4 -17.5 84 -18 -18 1024.1 1014.0
12 17.01 Ю 2 н/о н/о -14.5 -16.3 86 -19 -19 1023.9 1014.7
15 17.01 Ю 3 10 км 10/0
[As trans]
-13.2 -15.0 86 -19 -19 1023.8 1013.7 -13.2
18 17.01 Ю 3 10 км ясно -12.2 -14.0 86 -18 -18 1022.4 1012.5
21 17.01 Ю 3 10 км 8/0
[Cs]
-11.5 -13.4 86 -17 -17 1021.3 1011.4
00 18.01 Ю 3 10 км 10/0
[Cs]
-10.8 -13.0 84 -17 -17 1019.4 1009.5
03 18.01 Ю 3 10 км 10/0
[Cs]
-10.8 -13.0 84 -17 -17 1019.4 1009.5
06 18.01 Ю 5-10
{12}
н/о н/о -8.2 -10.8 81 -16 -16 1013.9 1005.0
09 18.01 Ю 5-10
{11}
4000 м слаб. снег {метель} 10/0
[As op]
-8.6 -10.9 83 -16 -16 1013.1 1003.3
12 18.01 Ю 3
{10}
н/о н/о -9.6 -12.1 82 -15 -15 1013.1 1004.2
15 18.01 Ю 3 4000 м слаб. снег 10/0
[Cs]
-10.8 -13.1 83 -17 -17 1013.8 1004.0 -8.0 2
18 18.01 Ю 2 10 км {снег} ясно -12.1 -14.1 85 -17 -17 1012.6 1002.8
21 18.01 Ю 4 10 км 10/0
[Cs]
-12.3 -14.3 85 -19 -19 1010.5 1000.7
00 19.01 Ю 3 10 км 10/0
[Cs]
-11.2 -13.3 84 -17 -17 1008.0 998.2
03 19.01 Ю 3 10 км в посл. час снег 10/0
[As op]
-9.6 -11.9 83 -15 -15 1005.2 995.4 -12.7 0.0 47
06 19.01 ЮЗ 3 н/о н/о -8.5 -11.0 82 -14 -14 1003.7 994.9
09 19.01 ЮЗ 5-10
{11}
4000 м слаб. снег {метель} 10/4 600 м
[Sc Cs]
-7.7 -10.6 80 -15 -15 1005.8 996.0
12 19.01 ЮЗ 4
{10}
н/о н/о -8.3 -10.8 82 -15 -15 1006.8 998.0
15 19.01 ЮЗ 4 4000 м слаб. снег {метель} 10/0
[As trans]
-7.7 -10.2 82 -14 -14 1009.5 999.7 -7.6 0.3
18 19.01 ЮЗ 4 10 км {снег, метель} 8/8 600 м
[Sc]
-9.1 -11.2 85 -16 -16 1010.4 1000.6
21 19.01 Ю 3 10 км 10/0
[As trans]
-8.9 -10.7 87 -15 -15 1009.7 999.9
00 20.01 Ю 2 10 км 10/0
[As trans]
-8.0 -9.8 87 -12 -12 1007.8 998.0
03 20.01 Ю 4 4000 м слаб. снег 10/0
[As op]
-6.6 -8.3 88 -13 -13 1005.9 996.3 -9.3 0.3 48
06 20.01 ЮЗ 4 н/о н/о -6.4 -8.6 84 -13 -13 1006.0 997.3
09 20.01 З 3
{10}
10 км {снег, метель} 4/1 600 м
[Sc Cs]
-8.4 -10.6 84 -14 -14 1010.0 1000.2
12 20.01 ЮЗ 1 н/о н/о -13.9 -15.3 89 -16 -16 1012.4 1003.3
15 20.01 З 1 10 км 10/0
[Cs]
-19.4 -21.7 82 -22 -22 1015.1 1005.8 -6.1 1
18 20.01 В 1 4000 м слаб. снег 10/0
[As trans]
-20.7 -23.2 80 -24 -24 1017.0 1006.7
21 20.01 СВ 1 10 км {снег} 10/0
[As trans]
-20.9 -23.3 81 -24 -24 1018.1 1007.8
00 21.01 В 1 10 км {снег} 10/0
[As trans]
-20.0 -22.4 81 -23 -23 1018.4 1008.1
03 21.01 В 1 10 км 10/3 600 м
[Sc As trans]
-16.1 -18.1 85 -19 -19 1017.0 1006.9 -21.7 0.0 50
06 21.01 В 2 н/о н/о -12.6 -14.4 86 -17 -17 1014.4 1005.4
09 21.01 В 3 4000 м слаб. снег 10/0
[As op]
-10.4 -12.2 87 -16 -16 1013.1 1003.3
12 21.01 В 2 н/о н/о -9.8 -11.4 88 -14 -14 1010.1 1001.2
15 21.01 ЮВ 2 2000 м снег {метель} 10/0
[As op]
-8.6 -10.0 90 -13 -13 1008.4 998.6 -8.6 4
18 21.01 ЮВ 2 4000 м слаб. снег {метель} 10/0
[As op]
-7.0 -8.2 91 -11 -11 1006.5 996.9
21 21.01 Ю 2 4000 м слаб. снег 10/0
[As op]
-5.9 -7.0 92 -10 -10 1006.5 996.9
00 22.01 З 4 10 км позёмок {снег} 10/0
[As trans]
-8.9 -10.9 85 -16 -16 1010.8 1001.0
03 22.01 ЮЗ 3
{10}
10 км позёмок 10/3 600 м
[Sc Cs]
-13.2 -15.1 86 -19 -19 1014.7 1004.7 -13.2 4 55
06 22.01 Ю 2 н/о н/о -12.1 -14.3 84 -17 -17 1015.3 1006.3 -13.7

 

Местоположение метеостанции Корлики (Ханты-Мансийский АО, Россия): широта 61.53 долгота 82.42 высота над уровнем моря 71 м.

В архиве по умолчанию представлена погода в Корликах за последнюю неделю. Архивные данные за месяц целиком и за предыдущие месяцы, начиная с января 2011 года, Вы можете получить, выбрав интересующий диапазон дат из раскрывающегося списка и нажав кнопку "Ввод!".


*Определитесь, кто Вы:
робот инопланетянин человек

Внимание! Время в таблицах - всемирное. Для получения местного времени необходимо прибавить поправку, которая равна 5 ч.

Смотрите также архив погоды в соседних городах и на ближайших метеорологических станциях:

Погода в Ларьяке (Ханты-Мансийский АО, Россия) (125 км)
Погода в Ванжиль-Кынаке (Томская область, Россия) (159 км)
Погода в Напасе (Томская область, Россия) (189 км)
Погода в Ваховске (Ханты-Мансийский АО, Россия) (206 км)
Погода в Келлоге (Красноярский край, Россия) (227 км)
Погода в Березовке (Томская область, Россия) (245 км)
Погода в Тольке (Ямало-Ненецкий АО, Россия) (273 км)
Погода в Александровском (Томская область, Россия) (274 км)
Погода в Прохоркино (Томская область, Россия) (276 км)
Погода в Радужном (Ханты-Мансийский АО, Россия) (276 км)

Пояснения к столбцам:

Ветер - указаны скорость ветра в м/с - средняя за 10 мин, порывы в срок и между сроками (в фигурных скобках) и направление, откуда дует ветер: С - северный, СВ - северо-восточный, В - восточный, ЮВ - юго-восточный, Ю - южный, ЮЗ - юго-западный, З - западный, СЗ - северо-западный.
Видимость - горизонтальная дальность видимости в метрах или километрах. При видимости от 1 до 10 км при отсутствии осадков обычно наблюдается дымка, при ухудшении видимости до 1 км и менее - туман. В сухую погоду видимость может ухудшаться дымом, пылью или мглою.
Явления - указаны атмосферные явления, наблюдавшиеся в срок или в последний час перед сроком; фигурными скобками обозначены явления, наблюдавшиеся между сроками (за 1-3 часа до срока); квадратными скобками обозначены град или гололедные отложения с указанием их диаметра в мм.
Облачность - указаны через наклонную черту общая и нижняя облачность в баллах и высота нижней границы облаков в метрах; квадратными скобками обозначены формы облаков: Ci - перистые, Cs - перисто-слоистые, Cc - перисто-кучевые, Ac - высококучевые, As - высокослоистые, Sc - слоисто-кучевые, Ns - слоисто-дождевые, Cu - кучевые, Cb - кучево-дождевые. Подробнее классификацию облаков см. в Атласе облаков (PDF).
T - Температура воздуха - температура, измеренная на высоте 2 м над землей.
Td - Температура точки росы - температура, при понижении до которой содержащийся в воздухе водяной пар достигнет насыщения.
f - Относительная влажность воздуха - влажноcть воздуха, измеренная на высоте 2 м над землей.
Te - Эффективная температура - температура, которую ощущает одетый по сезону человек в тени. Характеристика душности погоды. При расчете учитывается влияние влажности воздуха и скорости ветра на теплоощущения человека.
Tes - Эффективная температура на солнце - температура, которую ощущает человек, с поправкой на солнечный нагрев. Характеристика знойности погоды. Зависит от высоты солнца над горизонтом, облачности и скорости ветра. Ночью, в пасмурную погоду, а также при ветре 12 м/с и более поправка равна нулю.
P - Атмосферное давление - приведенное к уровню моря атмосферное давление.
Po - Атмосферное давление - измеренное на уровне метеостанции атмосферное давление.
Tmin - Минимальная температура - минимум температуры воздуха на высоте 2 м над землей.
Tmax - Максимальная температура - максимум температуры воздуха на высоте 2 м над землей.
R - Количество осадков - Количество выпавших осадков за период времени, мм. При наведении курсора мыши на число - период времени, за который выпало указанное количество осадков.
R24 - Количество осадков - Количество выпавших осадков за 24 часа, мм.
S - Снежный покров - Высота снежного покрова, см. При наведении курсора мыши на число - состояние снежного покрова и степень покрытия местности в баллах.